NWS1296 UUOO-URSS

Flight info

Callsign NWS1296
Flight time N/A
Altitude 35000
Route K0861F350 DCT PILOK L96 UMSIS N166 ADNET W79 BINOL DCT
Aircraft B738/M-SDGIJ1LRWY/SB1

Departure

Time 2026-05-05 08:46
Airport Voronezh International Airport (UUOO)

Arrival

Time N/A
Airport Sochi International Airport (URSS)
Time Latitude Longitude Altitude Speed Heading
2026-05-05 08:14 51.81132 39.22902 514 ft 0 kts 220°
2026-05-05 08:39 51.81134 39.22905 514 ft 1 kts 220°
2026-05-05 08:39 51.81146 39.22920 513 ft 2 kts 220°
2026-05-05 08:39 51.81156 39.22936 512 ft 2 kts 244°
2026-05-05 08:39 51.81157 39.22960 512 ft 2 kts 294°
2026-05-05 08:40 51.81148 39.22976 512 ft 2 kts 319°
2026-05-05 08:40 51.81139 39.22993 512 ft 1 kts 308°
2026-05-05 08:40 51.81137 39.22997 512 ft 0 kts 309°
2026-05-05 08:42 51.81137 39.22996 512 ft 1 kts 309°
2026-05-05 08:43 51.81156 39.22961 512 ft 7 kts 311°
2026-05-05 08:43 51.81215 39.22890 512 ft 13 kts
2026-05-05 08:43 51.81291 39.22830 512 ft 12 kts 310°
2026-05-05 08:43 51.81353 39.22719 511 ft 15 kts 311°
2026-05-05 08:44 51.81438 39.22559 510 ft 22 kts 310°
2026-05-05 08:44 51.81541 39.22362 509 ft 22 kts 308°
2026-05-05 08:44 51.81645 39.22176 509 ft 22 kts 311°
2026-05-05 08:44 51.81743 39.21989 507 ft 22 kts 310°
2026-05-05 08:45 51.81846 39.21803 505 ft 19 kts 329°
2026-05-05 08:45 51.81967 39.21828 506 ft 16 kts 11°
2026-05-05 08:45 51.82070 39.21863 507 ft 12 kts 44°
2026-05-05 08:45 51.82035 39.21963 510 ft 13 kts 131°
2026-05-05 08:46 51.81851 39.22304 512 ft 74 kts 132°
2026-05-05 08:46 51.81369 39.23212 509 ft 136 kts 131°
2026-05-05 08:46 51.80659 39.24572 708 ft 167 kts 131°
2026-05-05 08:46 51.79912 39.26008 1287 ft 175 kts 133°
2026-05-05 08:47 51.79120 39.27478 1998 ft 173 kts 132°
2026-05-05 08:47 51.78334 39.28968 2294 ft 185 kts 133°
2026-05-05 08:47 51.77463 39.30563 2609 ft 195 kts 133°
2026-05-05 08:47 51.76521 39.32239 2808 ft 213 kts 133°
2026-05-05 08:48 51.75486 39.34092 3078 ft 229 kts 132°
2026-05-05 08:48 51.74431 39.36109 3373 ft 245 kts 126°
2026-05-05 08:48 51.73692 39.38640 3855 ft 254 kts 102°
2026-05-05 08:48 51.73521 39.41485 4297 ft 266 kts 90°
2026-05-05 08:49 51.73512 39.44522 4898 ft 271 kts 89°
2026-05-05 08:49 51.73502 39.47537 5573 ft 273 kts 89°
2026-05-05 08:49 51.73463 39.50579 6286 ft 273 kts 90°
2026-05-05 08:49 51.73408 39.53638 6988 ft 275 kts 90°
2026-05-05 08:50 51.73320 39.56695 7669 ft 278 kts 94°
2026-05-05 08:50 51.72875 39.59708 8346 ft 282 kts 112°
2026-05-05 08:50 51.71748 39.62286 9055 ft 287 kts 134°
2026-05-05 08:50 51.70135 39.64201 9773 ft 291 kts 148°
2026-05-05 08:51 51.68268 39.65568 10391 ft 299 kts 158°
2026-05-05 08:51 51.66251 39.66673 10785 ft 315 kts 161°
2026-05-05 08:51 51.64141 39.67737 11149 ft 330 kts 161°
2026-05-05 08:51 51.61890 39.68885 11513 ft 345 kts 161°
2026-05-05 08:52 51.59562 39.70106 11874 ft 360 kts 160°
2026-05-05 08:52 51.57156 39.71395 12207 ft 376 kts 160°
2026-05-05 08:52 51.54641 39.72754 12513 ft 391 kts 160°
2026-05-05 08:52 51.51999 39.74184 12835 ft 405 kts 160°
2026-05-05 08:53 51.49318 39.75632 13388 ft 412 kts 160°
2026-05-05 08:53 51.46585 39.77106 14047 ft 417 kts 160°
2026-05-05 08:53 51.43860 39.78573 14743 ft 421 kts 160°
2026-05-05 08:53 51.41058 39.80079 15463 ft 424 kts 160°
2026-05-05 08:54 51.38284 39.81569 16168 ft 428 kts 160°
2026-05-05 08:54 51.35453 39.83086 16845 ft 432 kts 160°
2026-05-05 08:54 51.32622 39.84602 17486 ft 436 kts 160°
2026-05-05 08:54 51.29728 39.86151 18145 ft 439 kts 160°
2026-05-05 08:55 51.26818 39.87707 18817 ft 443 kts 160°
2026-05-05 08:55 51.23916 39.89255 19459 ft 446 kts 160°
2026-05-05 08:55 51.20969 39.90825 20089 ft 450 kts 160°
2026-05-05 08:55 51.17999 39.92406 20704 ft 453 kts 160°
2026-05-05 08:56 51.14998 39.94000 21297 ft 457 kts 160°
2026-05-05 08:56 51.12003 39.95590 21895 ft 460 kts 160°
2026-05-05 08:56 51.08952 39.97207 22469 ft 464 kts 160°
2026-05-05 08:56 51.05897 39.98823 23022 ft 468 kts 160°
2026-05-05 08:57 51.02784 40.00467 23570 ft 472 kts 160°
2026-05-05 08:57 50.99685 40.02101 24118 ft 475 kts 160°
2026-05-05 08:57 50.97613 40.03191 24486 ft 477 kts 160°